Voltar ao catálogo

STARLINK-5371

AtivoComunicaçõesVLEO
NORAD 55489·PAYLOAD·🇺🇸 United States

Lançado Feb 2, 2023 de Cape Canaveral Space Force Station

Loading…

Próximas Passagens (próximas 24 horas)

TLE

AtualizadoSource: CelesTrak SupGP

Época: Sep 15, 2026, 01:52 UTC

1 55489C 23015AS  26258.07826389 -.00010329  00000+0 -37416-3 0  2586
2 55489  43.0041 350.2515 0001944 275.6554 271.2873 15.27578801    13

Acompanhe STARLINK-5371 em tempo real com AllMySat

Download on the App Store